sat.trackr.live / text

‹ back to catalog

TELKOM 4 (MERAH PUTIH)

NORAD 43587 · 2018-064A

PAYLOAD ACTIVE UNKNOWN

§ Identity

Operator
Country
INDO
Launch date
2018-08-07
Launch site
AFETR
Launch vehicle
Mass (kg)
RCS (m²)

Purposes: comms

External: N2YO · Heavens-Above · Gunter

§ Orbital elements

Epoch: 2026-09-19T02:05:08.401056Z

Period
1,436.08 min
Inclination
0.0179°
Eccentricity
0.0001249
Mean motion
1.00273004 rev/d
Perigee alt
35,781.0 km
Apogee alt
35,791.5 km
Semi-major
42,164.4 km
B*
0.0000e+0
RAAN
155.3074°
Arg perigee
16.5574°
Mean anomaly
325.4298°
Rev number
2,982

§ Raw data

TELKOM 4 (MERAH PUTIH)1 43587U 18064A   26262.08690279 -.00000348  00000+0  00000+0 0  99992 43587   0.0179 155.3074 0001249  16.5574 325.4298  1.00273004 29826

JSON: /api/v1/satellites/43587 · /tle

For live sub-satellite position, see the globe view (requires WebGL).

§ Visibility from observer

Set your observer location to see the next 7 days of passes ≥ 10°. The values pass through the URL so the page stays shareable.

No JS? Fill the form by hand. The geolocation button needs JavaScript.